Wetterdaten: Freitag, 11.12.2009
Datum Zeit Temp. a Sch. Temp. a Son. Temp. a Bod. Feuchte a. Luftdruck Regen Wind Richtung Richtung Sonnenschein Helligkeit Taupunkt Windchill
11.12.2009 00:00 6,2 C 6,8 C 5,5 C 96 % 1021 hPa 0,0 l/m 2,9 m/s (2 Bft) W-SW45 255 0 min 0 lux 5,6 C 3,2 C
11.12.2009 00:05 6,2 C 6,8 C 5,6 C 96 % 1021 hPa 0,0 l/m 3,1 m/s (2 Bft) W-SW22.5 240 0 min 0 lux 5,6 C 2,7 C
11.12.2009 00:10 6,2 C 6,8 C 5,6 C 95 % 1021 hPa 0,0 l/m 5,1 m/s (3 Bft) W-SW45 245 0 min 0 lux 5,5 C -1,0 C
11.12.2009 00:15 6,3 C 6,8 C 5,6 C 95 % 1021 hPa 0,0 l/m 3,9 m/s (3 Bft) W-SW45 245 0 min 0 lux 5,6 C 1,1 C
11.12.2009 00:20 6,3 C 6,8 C 5,6 C 95 % 1021 hPa 0,0 l/m 4,3 m/s (3 Bft) W-SW22.5 250 0 min 0 lux 5,6 C 0,4 C
11.12.2009 00:26 6,4 C 6,9 C 5,6 C 95 % 1021 hPa 0,0 l/m 3,1 m/s (2 Bft) W-SW22.5 250 0 min 0 lux 5,7 C 2,8 C
11.12.2009 00:31 6,4 C 6,9 C 5,6 C 95 % 1021 hPa 0,0 l/m 2,9 m/s (2 Bft) W-SW22.5 250 0 min 0 lux 5,7 C 3,4 C
11.12.2009 00:36 6,4 C 6,9 C 5,6 C 95 % 1021 hPa 0,0 l/m 3,6 m/s (3 Bft) W-SW22.5 245 0 min 0 lux 5,7 C 1,9 C
11.12.2009 00:41 6,4 C 6,9 C 5,6 C 95 % 1021 hPa 0,0 l/m 2,5 m/s (2 Bft) W22.5 260 0 min 0 lux 5,7 C 4,3 C
11.12.2009 00:46 6,4 C 6,9 C 5,6 C 95 % 1021 hPa 0,0 l/m 5,8 m/s (4 Bft) W-SW45 250 0 min 0 lux 5,7 C -1,7 C
11.12.2009 00:51 6,4 C 6,9 C 5,6 C 95 % 1021 hPa 0,0 l/m 3,2 m/s (2 Bft) W-SW22.5 250 0 min 0 lux 5,7 C 2,6 C
11.12.2009 00:56 6,4 C 6,9 C 5,6 C 95 % 1021 hPa 0,0 l/m 5,1 m/s (3 Bft) W-SW22.5 250 0 min 0 lux 5,7 C -0,8 C
11.12.2009 01:01 6,4 C 6,9 C 5,6 C 95 % 1021 hPa 0,0 l/m 5,6 m/s (4 Bft) W-SW45 250 0 min 0 lux 5,7 C -1,4 C
11.12.2009 01:06 6,4 C 7,0 C 5,6 C 95 % 1021 hPa 0,0 l/m 3,3 m/s (2 Bft) W-SW45 255 0 min 0 lux 5,7 C 2,4 C
11.12.2009 01:10 6,4 C 7,0 C 5,6 C 95 % 1021 hPa 0,4 l/m 2,8 m/s (2 Bft) W-SW22.5 250 0 min 0 lux 5,7 C 3,6 C
11.12.2009 01:15 6,4 C 7,0 C 5,7 C 95 % 1021 hPa 0,0 l/m 3,4 m/s (3 Bft) W-SW67.5 250 0 min 0 lux 5,7 C 2,2 C
11.12.2009 01:20 6,4 C 7,0 C 5,7 C 95 % 1021 hPa 0,0 l/m 3,6 m/s (3 Bft) W-SW22.5 250 0 min 0 lux 5,7 C 1,8 C
11.12.2009 01:25 6,4 C 7,0 C 5,7 C 95 % 1020 hPa 0,0 l/m 3,6 m/s (3 Bft) W-SW22.5 250 0 min 0 lux 5,7 C 1,8 C
11.12.2009 01:30 6,5 C 7,0 C 5,7 C 94 % 1021 hPa 0,0 l/m 3,8 m/s (3 Bft) W22.5 265 0 min 0 lux 5,6 C 1,7 C
11.12.2009 01:35 6,5 C 7,0 C 5,7 C 94 % 1021 hPa 0,0 l/m 2,3 m/s (2 Bft) W-SW22.5 255 0 min 0 lux 5,6 C 5,1 C
11.12.2009 01:41 6,5 C 7,0 C 5,7 C 94 % 1020 hPa 0,0 l/m 3,3 m/s (2 Bft) W-SW22.5 250 0 min 0 lux 5,6 C 2,7 C
11.12.2009 01:46 6,5 C 7,1 C 5,7 C 94 % 1020 hPa 0,0 l/m 3,4 m/s (2 Bft) W-SW22.5 250 0 min 0 lux 5,6 C 2,4 C
11.12.2009 01:51 6,5 C 7,1 C 5,7 C 94 % 1020 hPa 0,0 l/m 4,1 m/s (3 Bft) W-SW45 240 0 min 0 lux 5,6 C 1,0 C
11.12.2009 01:56 6,6 C 7,1 C 5,7 C 93 % 1020 hPa 0,0 l/m 5,3 m/s (3 Bft) W22.5 260 0 min 0 lux 5,6 C -0,7 C
11.12.2009 02:00 6,5 C 7,1 C 5,7 C 93 % 1020 hPa 0,0 l/m 3,3 m/s (2 Bft) W-SW22.5 245 0 min 0 lux 5,5 C 2,5 C
11.12.2009 02:05 6,5 C 7,1 C 5,7 C 93 % 1020 hPa 0,0 l/m 4,9 m/s (3 Bft) W-SW45 245 0 min 0 lux 5,5 C -0,4 C
11.12.2009 02:10 6,6 C 7,1 C 5,7 C 93 % 1020 hPa 0,0 l/m 0,9 m/s (1 Bft) W-SW22.5 250 0 min 0 lux 5,6 C 6,6 C
11.12.2009 02:15 6,5 C 7,1 C 5,7 C 93 % 1020 hPa 0,4 l/m 2,3 m/s (2 Bft) W-SW22.5 255 0 min 0 lux 5,5 C 4,9 C
11.12.2009 02:20 6,5 C 7,1 C 5,7 C 93 % 1021 hPa 0,0 l/m 2,6 m/s (2 Bft) W22.5 260 0 min 0 lux 5,5 C 4,1 C
11.12.2009 02:25 6,5 C 7,1 C 5,7 C 93 % 1021 hPa 0,4 l/m 3,9 m/s (3 Bft) W-NW22.5 295 0 min 0 lux 5,5 C 1,3 C
11.12.2009 02:31 6,5 C 7,1 C 5,7 C 93 % 1021 hPa 0,0 l/m 6,2 m/s (4 Bft) W45 275 0 min 0 lux 5,5 C -2,1 C
11.12.2009 02:36 6,5 C 7,1 C 5,6 C 93 % 1021 hPa 0,0 l/m 2,9 m/s (2 Bft) W22.5 260 0 min 0 lux 5,5 C 3,5 C
11.12.2009 02:41 6,4 C 7,1 C 5,6 C 94 % 1021 hPa 0,0 l/m 3,4 m/s (2 Bft) W-SW22.5 255 0 min 0 lux 5,5 C 2,3 C
11.12.2009 02:46 6,4 C 7,1 C 5,6 C 93 % 1021 hPa 0,4 l/m 3,4 m/s (3 Bft) W-SW45 255 0 min 0 lux 5,4 C 2,2 C
11.12.2009 02:51 6,3 C 7,0 C 5,6 C 93 % 1021 hPa 0,0 l/m 5,4 m/s (3 Bft) W45 265 0 min 0 lux 5,3 C -1,2 C
11.12.2009 02:56 6,3 C 7,0 C 5,5 C 93 % 1021 hPa 0,0 l/m 3,6 m/s (3 Bft) W-SW45 255 0 min 0 lux 5,3 C 1,7 C
11.12.2009 03:01 6,2 C 7,0 C 5,5 C 92 % 1021 hPa 0,0 l/m 3,7 m/s (3 Bft) W-SW22.5 255 0 min 0 lux 5,0 C 1,4 C
11.12.2009 03:06 6,1 C 7,0 C 5,5 C 92 % 1020 hPa 0,0 l/m 2,5 m/s (2 Bft) W-SW22.5 250 0 min 0 lux 4,9 C 4,1 C
11.12.2009 03:11 6,1 C 6,9 C 5,4 C 91 % 1021 hPa 0,0 l/m 3,9 m/s (3 Bft) W-SW22.5 240 0 min 0 lux 4,7 C 0,9 C
11.12.2009 03:16 6,0 C 6,8 C 5,4 C 91 % 1021 hPa 0,0 l/m 3,3 m/s (2 Bft) W45 260 0 min 0 lux 4,6 C 1,9 C
11.12.2009 03:21 6,0 C 6,8 C 5,4 C 91 % 1020 hPa 0,0 l/m 3,1 m/s (2 Bft) W-SW45 245 0 min 0 lux 4,6 C 2,5 C
11.12.2009 03:26 6,0 C 6,7 C 5,3 C 91 % 1020 hPa 0,0 l/m 3,2 m/s (2 Bft) W45 265 0 min 0 lux 4,6 C 2,3 C
11.12.2009 03:31 6,0 C 6,7 C 5,3 C 91 % 1020 hPa 0,0 l/m 3,6 m/s (3 Bft) W22.5 265 0 min 0 lux 4,6 C 1,4 C
11.12.2009 03:36 6,0 C 6,6 C 5,2 C 91 % 1020 hPa 0,0 l/m 3,3 m/s (2 Bft) W-SW45 255 0 min 0 lux 4,6 C 1,9 C
11.12.2009 03:41 5,9 C 6,6 C 5,2 C 91 % 1020 hPa 0,0 l/m 2,1 m/s (2 Bft) W22.5 265 0 min 0 lux 4,5 C 5,0 C
11.12.2009 03:46 5,9 C 6,5 C 5,2 C 91 % 1020 hPa 0,0 l/m 4,0 m/s (3 Bft) W-SW45 240 0 min 0 lux 4,5 C 0,4 C
11.12.2009 03:51 5,8 C 6,4 C 5,1 C 91 % 1020 hPa 0,0 l/m 2,8 m/s (2 Bft) W-SW22.5 245 0 min 0 lux 4,4 C 3,0 C
11.12.2009 03:56 5,7 C 6,3 C 5,0 C 91 % 1020 hPa 0,0 l/m 3,4 m/s (3 Bft) W22.5 265 0 min 0 lux 4,3 C 1,4 C
11.12.2009 04:01 5,7 C 6,3 C 5,0 C 91 % 1020 hPa 0,0 l/m 3,3 m/s (2 Bft) W45 260 0 min 0 lux 4,3 C 1,7 C
11.12.2009 04:06 5,8 C 6,3 C 5,0 C 90 % 1020 hPa 0,0 l/m 4,1 m/s (3 Bft) W-SW67.5 250 0 min 0 lux 4,3 C 0,2 C
11.12.2009 04:11 5,8 C 6,3 C 4,9 C 90 % 1020 hPa 0,0 l/m 6,1 m/s (4 Bft) W67.5 275 0 min 0 lux 4,3 C -2,9 C
11.12.2009 04:16 5,8 C 6,3 C 4,9 C 90 % 1020 hPa 0,0 l/m 2,5 m/s (2 Bft) W45 270 0 min 0 lux 4,3 C 3,7 C
11.12.2009 04:21 5,7 C 6,2 C 4,9 C 90 % 1020 hPa 0,0 l/m 7,3 m/s (4 Bft) W45 275 0 min 0 lux 4,2 C -4,4 C
11.12.2009 04:26 5,8 C 6,3 C 4,8 C 90 % 1021 hPa 0,0 l/m 3,5 m/s (3 Bft) W45 280 0 min 0 lux 4,3 C 1,3 C
11.12.2009 04:31 5,8 C 6,3 C 4,8 C 89 % 1020 hPa 0,0 l/m 3,5 m/s (3 Bft) W45 280 0 min 0 lux 4,1 C 1,3 C
11.12.2009 04:35 5,9 C 6,3 C 4,8 C 88 % 1020 hPa 0,0 l/m 4,9 m/s (3 Bft) W-SW22.5 255 0 min 0 lux 4,1 C -1,1 C
11.12.2009 04:40 5,9 C 6,3 C 4,8 C 88 % 1020 hPa 0,0 l/m 4,6 m/s (3 Bft) W-NW45 285 0 min 0 lux 4,1 C -0,6 C
11.12.2009 04:45 5,8 C 6,3 C 4,7 C 89 % 1020 hPa 0,0 l/m 4,4 m/s (3 Bft) W-SW45 240 0 min 0 lux 4,1 C -0,3 C
11.12.2009 04:50 5,8 C 6,3 C 4,7 C 88 % 1020 hPa 0,0 l/m 5,1 m/s (3 Bft) W45 265 0 min 0 lux 4,0 C -1,5 C
11.12.2009 04:55 5,8 C 6,3 C 4,7 C 89 % 1020 hPa 0,0 l/m 6,8 m/s (4 Bft) SW22.5 235 0 min 0 lux 4,1 C -3,7 C
11.12.2009 05:00 5,7 C 6,3 C 4,7 C 89 % 1020 hPa 0,0 l/m 2,8 m/s (2 Bft) W22.5 275 0 min 0 lux 4,0 C 2,8 C
11.12.2009 05:05 5,7 C 6,3 C 4,7 C 89 % 1020 hPa 0,0 l/m 4,1 m/s (3 Bft) W-NW45 285 0 min 0 lux 4,0 C 0,1 C
11.12.2009 05:10 5,7 C 6,3 C 4,7 C 89 % 1020 hPa 0,4 l/m 3,1 m/s (2 Bft) W-SW22.5 250 0 min 0 lux 4,0 C 2,0 C
11.12.2009 05:15 5,7 C 6,3 C 4,7 C 90 % 1020 hPa 0,0 l/m 3,3 m/s (2 Bft) W45 260 0 min 0 lux 4,2 C 1,6 C
11.12.2009 05:20 5,7 C 6,3 C 4,7 C 89 % 1021 hPa 0,0 l/m 5,4 m/s (3 Bft) W45 270 0 min 0 lux 4,0 C -2,0 C
11.12.2009 05:25 5,8 C 6,3 C 4,7 C 89 % 1021 hPa 0,0 l/m 2,9 m/s (2 Bft) W-SW45 255 0 min 0 lux 4,1 C 2,6 C
11.12.2009 05:30 5,8 C 6,3 C 4,7 C 88 % 1021 hPa 0,0 l/m 3,8 m/s (3 Bft) SW45 235 0 min 0 lux 4,0 C 0,7 C
11.12.2009 05:35 5,8 C 6,3 C 4,7 C 89 % 1021 hPa 0,0 l/m 5,0 m/s (3 Bft) W-NW45 300 0 min 0 lux 4,1 C -1,3 C
11.12.2009 05:40 5,9 C 6,4 C 4,8 C 88 % 1021 hPa 0,0 l/m 2,4 m/s (2 Bft) W-NW22.5 300 0 min 0 lux 4,1 C 4,0 C
11.12.2009 05:45 5,9 C 6,4 C 4,8 C 88 % 1021 hPa 0,0 l/m 2,4 m/s (2 Bft) W45 275 0 min 0 lux 4,1 C 4,2 C
11.12.2009 05:50 5,8 C 6,4 C 4,8 C 90 % 1021 hPa 0,0 l/m 0,4 m/s (1 Bft) W-SW22.5 255 0 min 0 lux 4,3 C 5,8 C
11.12.2009 05:55 5,8 C 6,4 C 4,8 C 90 % 1021 hPa 0,0 l/m 1,1 m/s (1 Bft) N22.5 350 0 min 0 lux 4,3 C 5,8 C
11.12.2009 06:00 5,7 C 6,3 C 4,8 C 90 % 1021 hPa 0,0 l/m 0,0 m/s (0 Bft) S 180 0 min 0 lux 4,2 C 5,7 C
11.12.2009 06:05 5,6 C 6,4 C 4,8 C 90 % 1021 hPa 0,0 l/m 0,3 m/s (0 Bft) W-SW45 255 0 min 0 lux 4,1 C 5,6 C
11.12.2009 06:10 5,6 C 6,3 C 4,8 C 90 % 1021 hPa 0,4 l/m 0,1 m/s (0 Bft) N-NW67.5 345 0 min 0 lux 4,1 C 5,6 C
11.12.2009 06:15 5,6 C 6,3 C 4,8 C 91 % 1021 hPa 0,0 l/m 1,0 m/s (1 Bft) NW 310 0 min 0 lux 4,2 C 5,6 C
11.12.2009 06:20 5,5 C 6,3 C 4,8 C 91 % 1021 hPa 0,0 l/m 0,5 m/s (1 Bft) NW22.5 310 0 min 0 lux 4,2 C 5,5 C
11.12.2009 06:25 5,5 C 6,2 C 4,8 C 91 % 1021 hPa 0,0 l/m 0,4 m/s (1 Bft) NW22.5 325 0 min 0 lux 4,2 C 5,5 C
11.12.2009 06:30 5,5 C 6,2 C 4,8 C 91 % 1021 hPa 0,0 l/m 0,0 m/s (0 Bft) NW 325 0 min 0 lux 4,2 C 5,5 C
11.12.2009 06:35 5,4 C 6,2 C 4,8 C 92 % 1021 hPa 0,0 l/m 0,0 m/s (0 Bft) NW 320 0 min 0 lux 4,2 C 5,4 C
11.12.2009 06:40 5,3 C 6,1 C 4,8 C 92 % 1021 hPa 0,0 l/m 2,3 m/s (2 Bft) NW67.5 320 0 min 0 lux 4,1 C 3,8 C
11.12.2009 06:45 5,3 C 6,1 C 4,7 C 92 % 1021 hPa 0,0 l/m 0,3 m/s (0 Bft) W-NW22.5 300 0 min 0 lux 4,1 C 5,3 C
11.12.2009 06:50 5,3 C 6,1 C 4,7 C 91 % 1021 hPa 0,0 l/m 2,7 m/s (2 Bft) W 275 0 min 0 lux 4,0 C 2,7 C
11.12.2009 06:55 5,2 C 6,0 C 4,7 C 91 % 1021 hPa 0,0 l/m 2,1 m/s (2 Bft) N-NW67.5 330 0 min 0 lux 3,9 C 4,2 C
11.12.2009 07:00 5,2 C 6,0 C 4,7 C 91 % 1021 hPa 0,0 l/m 1,5 m/s (1 Bft) W-NW 285 0 min 0 lux 3,9 C 5,2 C
11.12.2009 07:05 5,2 C 6,0 C 4,6 C 90 % 1021 hPa 0,0 l/m 1,8 m/s (2 Bft) NW22.5 315 0 min 0 lux 3,7 C 5,1 C
11.12.2009 07:10 4,9 C 5,9 C 4,6 C 90 % 1021 hPa 0,0 l/m 1,1 m/s (1 Bft) W-NW 295 0 min 0 lux 3,4 C 4,9 C
11.12.2009 07:15 4,9 C 5,8 C 4,6 C 90 % 1022 hPa 0,0 l/m 0,8 m/s (1 Bft) W-NW 295 0 min 0 lux 3,4 C 4,9 C
11.12.2009 07:20 4,9 C 5,7 C 4,5 C 91 % 1022 hPa 0,0 l/m 0,1 m/s (0 Bft) W-NW 295 0 min 0 lux 3,6 C 4,9 C
11.12.2009 07:25 4,7 C 5,7 C 4,4 C 91 % 1022 hPa 0,0 l/m 1,4 m/s (1 Bft) W-NW 295 0 min 0 lux 3,4 C 4,7 C
11.12.2009 07:30 4,7 C 5,6 C 4,4 C 91 % 1022 hPa 0,0 l/m 1,4 m/s (1 Bft) W-NW22.5 290 0 min 0 lux 3,4 C 4,7 C
11.12.2009 07:35 4,7 C 5,6 C 4,4 C 91 % 1022 hPa 0,0 l/m 1,9 m/s (2 Bft) W-NW22.5 290 0 min 0 lux 3,4 C 4,4 C
11.12.2009 07:40 4,6 C 5,6 C 4,4 C 91 % 1022 hPa 0,0 l/m 2,4 m/s (2 Bft) W-NW22.5 285 0 min 0 lux 3,3 C 2,7 C
11.12.2009 07:45 4,6 C 5,5 C 4,3 C 90 % 1022 hPa 0,0 l/m 4,4 m/s (3 Bft) W-NW22.5 285 0 min 0 lux 3,1 C -1,9 C
11.12.2009 07:50 4,5 C 5,4 C 4,2 C 90 % 1022 hPa 0,0 l/m 3,4 m/s (2 Bft) NW45 305 0 min 0 lux 3,0 C 0,1 C
11.12.2009 07:55 4,5 C 5,4 C 4,1 C 89 % 1022 hPa 0,0 l/m 4,4 m/s (3 Bft) NW45 305 0 min 0 lux 2,8 C -2,0 C
11.12.2009 08:00 4,5 C 5,3 C 4,1 C 89 % 1022 hPa 0,0 l/m 0,2 m/s (0 Bft) NW 305 0 min 36 lux 2,8 C 4,5 C
11.12.2009 08:05 4,5 C 5,3 C 4,1 C 89 % 1022 hPa 0,0 l/m 0,0 m/s (0 Bft) NW 310 0 min 54 lux 2,8 C 4,5 C
11.12.2009 08:10 4,4 C 5,3 C 4,1 C 89 % 1022 hPa 0,0 l/m 0,3 m/s (0 Bft) SW67.5 230 0 min 91 lux 2,7 C 4,4 C
11.12.2009 08:16 4,5 C 5,3 C 4,1 C 89 % 1022 hPa 0,0 l/m 0,8 m/s (1 Bft) W22.5 265 0 min 211 lux 2,8 C 4,5 C
11.12.2009 08:21 4,5 C 5,3 C 4,0 C 88 % 1022 hPa 0,0 l/m 2,2 m/s (2 Bft) W-NW45 295 0 min 361 lux 2,7 C 3,1 C
11.12.2009 08:26 4,4 C 5,2 C 4,0 C 88 % 1022 hPa 0,0 l/m 0,5 m/s (1 Bft) W-NW45 295 0 min 514 lux 2,6 C 4,4 C
11.12.2009 08:31 4,3 C 5,1 C 3,9 C 88 % 1023 hPa 0,0 l/m 0,3 m/s (0 Bft) NW22.5 315 0 min 715 lux 2,5 C 4,3 C
11.12.2009 08:36 4,2 C 5,1 C 3,9 C 89 % 1023 hPa 0,0 l/m 0,6 m/s (1 Bft) W 275 0 min 823 lux 2,6 C 4,2 C
11.12.2009 08:41 4,1 C 5,0 C 3,8 C 89 % 1023 hPa 0,0 l/m 4,1 m/s (3 Bft) W-NW22.5 285 0 min 1,07 klux 2,5 C -2,0 C
11.12.2009 08:46 4,1 C 5,0 C 3,8 C 89 % 1023 hPa 0,0 l/m 1,9 m/s (2 Bft) W 275 0 min 1,23 klux 2,5 C 3,8 C
11.12.2009 08:51 4,2 C 5,0 C 3,8 C 89 % 1023 hPa 0,0 l/m 6,1 m/s (4 Bft) W22.5 275 0 min 1,29 klux 2,6 C -4,9 C
11.12.2009 08:56 4,2 C 5,0 C 3,8 C 89 % 1023 hPa 0,0 l/m 2,3 m/s (2 Bft) NW45 305 0 min 1,43 klux 2,6 C 2,5 C
11.12.2009 09:01 4,2 C 5,0 C 3,8 C 89 % 1023 hPa 0,0 l/m 2,2 m/s (2 Bft) W22.5 270 0 min 1,94 klux 2,6 C 2,8 C
11.12.2009 09:06 4,1 C 5,0 C 3,7 C 89 % 1023 hPa 0,0 l/m 2,3 m/s (2 Bft) W-SW 250 0 min 2,20 klux 2,5 C 2,6 C
11.12.2009 09:11 4,1 C 5,0 C 3,7 C 89 % 1023 hPa 0,0 l/m 1,6 m/s (1 Bft) W22.5 260 0 min 2,25 klux 2,5 C 4,1 C
11.12.2009 09:16 4,1 C 5,0 C 3,7 C 90 % 1023 hPa 0,0 l/m 2,3 m/s (2 Bft) W22.5 265 0 min 2,28 klux 2,6 C 2,5 C
11.12.2009 09:21 4,2 C 5,0 C 3,8 C 90 % 1023 hPa 0,0 l/m 2,8 m/s (2 Bft) W22.5 265 0 min 2,49 klux 2,7 C 1,2 C
11.12.2009 09:26 4,2 C 5,0 C 3,7 C 90 % 1023 hPa 0,0 l/m 2,1 m/s (2 Bft) W22.5 260 0 min 3,16 klux 2,7 C 3,3 C
11.12.2009 09:31 4,2 C 5,0 C 3,7 C 90 % 1023 hPa 0,0 l/m 2,4 m/s (2 Bft) SW22.5 235 0 min 3,35 klux 2,7 C 2,1 C
11.12.2009 09:36 4,2 C 5,0 C 3,7 C 89 % 1023 hPa 0,0 l/m 2,1 m/s (2 Bft) W22.5 260 0 min 3,39 klux 2,6 C 3,3 C
11.12.2009 09:41 4,3 C 5,1 C 3,8 C 89 % 1023 hPa 0,0 l/m 2,9 m/s (2 Bft) W45 280 0 min 3,42 klux 2,7 C 0,9 C
11.12.2009 09:46 4,4 C 5,1 C 3,8 C 89 % 1023 hPa 0,0 l/m 1,6 m/s (2 Bft) NW22.5 310 0 min 2,77 klux 2,7 C 4,4 C
11.12.2009 09:51 4,5 C 5,1 C 3,9 C 89 % 1023 hPa 0,0 l/m 1,6 m/s (2 Bft) NW22.5 310 0 min 4,20 klux 2,8 C 4,5 C
11.12.2009 09:56 4,6 C 5,2 C 3,9 C 88 % 1023 hPa 0,0 l/m 2,3 m/s (2 Bft) N-NW45 330 0 min 4,85 klux 2,8 C 2,9 C
11.12.2009 10:01 4,6 C 5,2 C 4,0 C 88 % 1023 hPa 0,0 l/m 2,9 m/s (2 Bft) N-NW22.5 340 0 min 4,84 klux 2,8 C 1,2 C
11.12.2009 10:06 4,7 C 5,3 C 4,0 C 87 % 1023 hPa 0,0 l/m 1,5 m/s (1 Bft) N22.5 5 0 min 7,07 klux 2,7 C 4,7 C
11.12.2009 10:11 4,8 C 5,3 C 4,1 C 87 % 1023 hPa 0,0 l/m 1,8 m/s (2 Bft) N-NW67.5 340 0 min 7,36 klux 2,8 C 4,6 C
11.12.2009 10:16 4,8 C 5,4 C 4,1 C 86 % 1023 hPa 0,0 l/m 3,8 m/s (3 Bft) N-NW22.5 345 0 min 7,59 klux 2,7 C -0,5 C
11.12.2009 10:21 4,9 C 5,5 C 4,1 C 86 % 1023 hPa 0,0 l/m 2,3 m/s (2 Bft) N22.5 360 0 min 8,49 klux 2,8 C 3,3 C
11.12.2009 10:26 4,9 C 5,5 C 4,1 C 86 % 1023 hPa 0,0 l/m 2,4 m/s (2 Bft) N22.5 10 0 min 8,77 klux 2,8 C 3,1 C
11.12.2009 10:31 4,9 C 5,6 C 4,2 C 85 % 1024 hPa 0,0 l/m 3,0 m/s (2 Bft) N-NO67.5 25 0 min 7,09 klux 2,6 C 1,5 C
11.12.2009 10:36 4,9 C 5,6 C 4,2 C 85 % 1024 hPa 0,0 l/m 2,9 m/s (2 Bft) N-NO45 20 0 min 7,09 klux 2,6 C 1,5 C
11.12.2009 10:41 4,9 C 5,6 C 4,2 C 84 % 1024 hPa 0,0 l/m 2,5 m/s (2 Bft) N-NO45 30 0 min 5,41 klux 2,4 C 2,6 C
11.12.2009 10:45 4,8 C 5,6 C 4,2 C 84 % 1024 hPa 0,0 l/m 2,6 m/s (2 Bft) N-NO67.5 25 0 min 7,41 klux 2,3 C 2,4 C
11.12.2009 10:50 4,8 C 5,7 C 4,3 C 84 % 1024 hPa 0,0 l/m 1,8 m/s (2 Bft) NO22.5 45 0 min 5,62 klux 2,3 C 4,6 C
11.12.2009 10:55 4,9 C 5,7 C 4,1 C 84 % 1024 hPa 0,0 l/m 2,9 m/s (2 Bft) NO67.5 45 0 min 4,74 klux 2,4 C 1,6 C
11.12.2009 11:00 4,8 C 5,7 C 4,2 C 84 % 1024 hPa 0,0 l/m 2,1 m/s (2 Bft) N-NO45 30 0 min 4,35 klux 2,3 C 3,7 C
11.12.2009 11:06 4,9 C 5,6 C 4,1 C 84 % 1024 hPa 0,0 l/m 2,8 m/s (2 Bft) N67.5 5 0 min 9,1 klux 2,4 C 2,0 C
11.12.2009 11:11 4,9 C 5,7 C 4,1 C 82 % 1024 hPa 0,0 l/m 2,3 m/s (2 Bft) N-NO67.5 30 0 min 12,5 klux 2,1 C 3,3 C
11.12.2009 11:16 4,9 C 5,7 C 4,3 C 82 % 1024 hPa 0,0 l/m 2,6 m/s (2 Bft) N67.5 5 0 min 11,9 klux 2,1 C 2,5 C
11.12.2009 11:21 5,1 C 5,8 C 4,2 C 81 % 1024 hPa 0,0 l/m 3,2 m/s (2 Bft) NO45 45 0 min 11,8 klux 2,1 C 1,2 C
11.12.2009 11:25 5,1 C 5,9 C 4,4 C 81 % 1024 hPa 0,0 l/m 3,3 m/s (2 Bft) O-NO67.5 70 0 min 10,1 klux 2,1 C 1,0 C
11.12.2009 11:30 5,2 C 5,9 C 4,5 C 82 % 1024 hPa 0,0 l/m 1,7 m/s (2 Bft) N22.5 10 0 min 8,30 klux 2,4 C 5,2 C
11.12.2009 11:35 5,2 C 5,9 C 4,4 C 81 % 1024 hPa 0,0 l/m 2,9 m/s (2 Bft) N22.5 5 0 min 9,3 klux 2,2 C 1,9 C
11.12.2009 11:40 5,1 C 6,0 C 4,5 C 82 % 1024 hPa 0,0 l/m 0,8 m/s (1 Bft) N 360 0 min 7,90 klux 2,3 C 5,1 C
11.12.2009 11:45 5,1 C 6,0 C 4,5 C 83 % 1024 hPa 0,0 l/m 1,3 m/s (1 Bft) NO45 45 0 min 6,12 klux 2,5 C 5,1 C
11.12.2009 11:50 4,9 C 6,0 C 4,4 C 81 % 1024 hPa 0,0 l/m 0,4 m/s (1 Bft) N-NW22.5 340 0 min 5,62 klux 1,9 C 4,9 C
11.12.2009 11:56 4,9 C 5,9 C 4,4 C 81 % 1024 hPa 0,0 l/m 2,6 m/s (2 Bft) N-NO45 15 0 min 7,67 klux 1,9 C 2,5 C
11.12.2009 11:56 4,9 C 5,9 C 4,4 C 81 % 1024 hPa 0,0 l/m 2,6 m/s (2 Bft) N-NO45 15 0 min 7,67 klux 1,9 C 2,5 C
11.12.2009 12:01 5,2 C 6,0 C 4,6 C 81 % 1024 hPa 0,0 l/m 3,3 m/s (2 Bft) N45 5 0 min 12,2 klux 2,2 C 1,0 C
11.12.2009 12:06 5,3 C 6,0 C 4,6 C 81 % 1024 hPa 0,0 l/m 2,0 m/s (2 Bft) NO45 50 0 min 12,9 klux 2,3 C 4,6 C
11.12.2009 12:11 5,4 C 6,0 C 4,7 C 81 % 1024 hPa 0,0 l/m 2,1 m/s (2 Bft) N-NO67.5 20 0 min 11,1 klux 2,4 C 4,3 C
11.12.2009 12:16 5,4 C 6,0 C 4,6 C 80 % 1024 hPa 0,0 l/m 3,1 m/s (2 Bft) N45 360 0 min 9,5 klux 2,2 C 1,7 C
11.12.2009 12:20 5,3 C 6,1 C 4,5 C 79 % 1024 hPa 0,0 l/m 2,1 m/s (2 Bft) N45 360 0 min 7,73 klux 2,0 C 4,4 C
11.12.2009 12:25 5,3 C 6,0 C 4,6 C 80 % 1024 hPa 0,0 l/m 2,4 m/s (2 Bft) N-NO45 25 0 min 7,55 klux 2,1 C 3,5 C
11.12.2009 12:30 5,2 C 6,0 C 4,8 C 80 % 1024 hPa 0,0 l/m 1,5 m/s (1 Bft) NO45 50 0 min 7,90 klux 2,0 C 5,2 C
11.12.2009 12:35 5,3 C 6,0 C 4,8 C 81 % 1024 hPa 0,0 l/m 2,6 m/s (2 Bft) NW67.5 320 0 min 6,57 klux 2,3 C 2,9 C
11.12.2009 12:40 5,3 C 6,0 C 4,6 C 80 % 1024 hPa 0,0 l/m 2,0 m/s (2 Bft) N22.5 5 0 min 7,66 klux 2,1 C 4,5 C
11.12.2009 12:45 5,3 C 6,0 C 4,8 C 80 % 1024 hPa 0,0 l/m 1,7 m/s (2 Bft) NW45 325 0 min 7,96 klux 2,1 C 5,3 C
11.12.2009 12:51 5,4 C 6,0 C 4,8 C 81 % 1024 hPa 0,0 l/m 0,2 m/s (0 Bft) W-NW 300 0 min 6,50 klux 2,4 C 5,4 C
11.12.2009 12:56 5,3 C 6,0 C 4,7 C 81 % 1024 hPa 0,0 l/m 1,8 m/s (2 Bft) N-NO45 15 0 min 6,11 klux 2,3 C 5,2 C
11.12.2009 13:01 5,2 C 6,0 C 4,8 C 81 % 1024 hPa 0,0 l/m 0,4 m/s (1 Bft) NO67.5 40 0 min 6,36 klux 2,2 C 5,2 C
11.12.2009 13:05 5,2 C 5,9 C 4,8 C 82 % 1024 hPa 0,0 l/m 0,3 m/s (1 Bft) W22.5 275 0 min 5,97 klux 2,4 C 5,2 C
11.12.2009 13:10 5,2 C 5,9 C 4,8 C 81 % 1024 hPa 0,0 l/m 1,9 m/s (2 Bft) NO67.5 35 0 min 5,50 klux 2,2 C 4,7 C
11.12.2009 13:15 5,2 C 5,9 C 4,6 C 82 % 1024 hPa 0,0 l/m 1,1 m/s (1 Bft) N22.5 350 0 min 5,03 klux 2,4 C 5,2 C
11.12.2009 13:20 5,2 C 5,9 C 4,7 C 82 % 1024 hPa 0,0 l/m 0,1 m/s (0 Bft) N-NW 345 0 min 4,81 klux 2,4 C 5,2 C
11.12.2009 13:25 5,2 C 5,9 C 4,8 C 83 % 1024 hPa 0,0 l/m 0,3 m/s (0 Bft) N-NW 330 0 min 5,90 klux 2,6 C 5,2 C
11.12.2009 13:30 5,3 C 5,9 C 4,8 C 82 % 1024 hPa 0,0 l/m 1,1 m/s (1 Bft) NW 320 0 min 6,59 klux 2,5 C 5,3 C
11.12.2009 13:36 5,3 C 5,9 C 4,7 C 82 % 1024 hPa 0,0 l/m 0,2 m/s (0 Bft) N-NW 330 0 min 6,98 klux 2,5 C 5,3 C
11.12.2009 13:41 5,3 C 5,9 C 4,7 C 81 % 1024 hPa 0,0 l/m 0,0 m/s (0 Bft) O 80 0 min 7,30 klux 2,3 C 5,3 C
11.12.2009 13:46 5,4 C 6,0 C 4,8 C 82 % 1024 hPa 0,0 l/m 1,2 m/s (1 Bft) O22.5 95 0 min 7,04 klux 2,6 C 5,4 C
11.12.2009 13:51 5,4 C 6,0 C 4,8 C 81 % 1024 hPa 0,0 l/m 1,4 m/s (1 Bft) O-NO45 60 0 min 5,94 klux 2,4 C 5,4 C
11.12.2009 13:55 5,4 C 6,0 C 4,7 C 81 % 1024 hPa 0,0 l/m 0,9 m/s (1 Bft) N 360 0 min 5,94 klux 2,4 C 5,4 C
11.12.2009 14:00 5,2 C 6,0 C 4,7 C 81 % 1024 hPa 0,0 l/m 2,2 m/s (2 Bft) N-NO67.5 15 0 min 3,40 klux 2,2 C 4,0 C
11.12.2009 14:05 5,2 C 6,0 C 4,7 C 80 % 1024 hPa 0,0 l/m 2,6 m/s (2 Bft) N-NW22.5 340 0 min 3,67 klux 2,0 C 2,7 C
11.12.2009 14:10 5,2 C 5,9 C 4,7 C 81 % 1024 hPa 0,0 l/m 1,4 m/s (1 Bft) NO45 35 0 min 4,39 klux 2,2 C 5,2 C
11.12.2009 14:15 5,2 C 5,9 C 4,7 C 82 % 1024 hPa 0,0 l/m 1,1 m/s (1 Bft) N 5 0 min 4,16 klux 2,4 C 5,2 C
11.12.2009 14:20 5,1 C 5,9 C 4,7 C 83 % 1024 hPa 0,0 l/m 0,6 m/s (1 Bft) N-NO22.5 20 0 min 4,08 klux 2,5 C 5,1 C
11.12.2009 14:26 4,9 C 5,8 C 4,8 C 82 % 1024 hPa 0,0 l/m 1,4 m/s (1 Bft) N 360 0 min 4,97 klux 2,1 C 4,9 C
11.12.2009 14:31 4,9 C 5,8 C 4,7 C 83 % 1024 hPa 0,0 l/m 0,1 m/s (0 Bft) N-NW 345 0 min 3,98 klux 2,3 C 4,9 C
11.12.2009 14:36 4,9 C 5,8 C 4,7 C 83 % 1024 hPa 0,0 l/m 3,3 m/s (2 Bft) N-NW45 340 0 min 3,65 klux 2,3 C 0,8 C
11.12.2009 14:40 4,8 C 5,8 C 4,6 C 83 % 1024 hPa 0,0 l/m 1,9 m/s (2 Bft) N-NO67.5 25 0 min 3,34 klux 2,2 C 4,3 C
11.12.2009 14:45 4,8 C 5,7 C 4,6 C 83 % 1024 hPa 0,0 l/m 1,9 m/s (2 Bft) N-NO67.5 25 0 min 3,17 klux 2,2 C 4,3 C
11.12.2009 14:50 4,8 C 5,7 C 4,5 C 83 % 1024 hPa 0,0 l/m 2,6 m/s (2 Bft) N45 360 0 min 3,51 klux 2,2 C 2,3 C
11.12.2009 14:55 4,8 C 5,7 C 4,6 C 83 % 1024 hPa 0,0 l/m 0,6 m/s (1 Bft) N-NO22.5 20 0 min 4,62 klux 2,2 C 4,8 C
11.12.2009 15:00 4,9 C 5,7 C 4,6 C 82 % 1024 hPa 0,0 l/m 3,4 m/s (3 Bft) N67.5 5 0 min 5,54 klux 2,1 C 0,4 C
11.12.2009 15:05 4,9 C 5,7 C 4,5 C 82 % 1024 hPa 0,0 l/m 1,1 m/s (1 Bft) N-NW22.5 340 0 min 5,08 klux 2,1 C 4,9 C
11.12.2009 15:10 4,9 C 5,7 C 4,5 C 82 % 1024 hPa 0,0 l/m 1,1 m/s (1 Bft) N-NW22.5 340 0 min 4,04 klux 2,1 C 4,9 C
11.12.2009 15:15 4,8 C 5,7 C 4,5 C 82 % 1024 hPa 0,0 l/m 3,2 m/s (2 Bft) N22.5 350 0 min 3,02 klux 2,0 C 0,8 C
11.12.2009 15:20 4,8 C 5,6 C 4,4 C 82 % 1024 hPa 0,0 l/m 1,1 m/s (1 Bft) N22.5 350 0 min 2,34 klux 2,0 C 4,8 C
11.12.2009 15:25 4,7 C 5,6 C 4,4 C 82 % 1024 hPa 0,0 l/m 2,9 m/s (2 Bft) N67.5 360 0 min 2,05 klux 1,9 C 1,3 C
11.12.2009 15:30 4,6 C 5,5 C 4,3 C 81 % 1025 hPa 0,0 l/m 3,8 m/s (3 Bft) N-NO45 20 0 min 1,97 klux 1,6 C -0,6 C
11.12.2009 15:35 4,6 C 5,5 C 4,2 C 82 % 1025 hPa 0,0 l/m 3,8 m/s (3 Bft) N45 5 0 min 1,92 klux 1,8 C -0,7 C
11.12.2009 15:40 4,5 C 5,4 C 4,3 C 82 % 1025 hPa 0,0 l/m 2,2 m/s (2 Bft) N-NO45 15 0 min 1,81 klux 1,7 C 3,2 C
11.12.2009 15:45 4,5 C 5,4 C 4,2 C 82 % 1025 hPa 0,0 l/m 3,0 m/s (2 Bft) N-NO45 15 0 min 1,68 klux 1,7 C 1,0 C
11.12.2009 15:50 4,4 C 5,3 C 4,2 C 82 % 1025 hPa 0,0 l/m 2,5 m/s (2 Bft) NO45 35 0 min 1,62 klux 1,6 C 2,2 C
11.12.2009 15:56 4,4 C 5,3 C 4,1 C 82 % 1025 hPa 0,0 l/m 2,1 m/s (2 Bft) NO45 45 0 min 1,39 klux 1,6 C 3,2 C
11.12.2009 16:01 4,4 C 5,2 C 4,1 C 82 % 1025 hPa 0,0 l/m 1,5 m/s (1 Bft) N45 360 0 min 1,09 klux 1,6 C 4,4 C
11.12.2009 16:06 4,3 C 5,2 C 4,1 C 83 % 1025 hPa 0,0 l/m 0,4 m/s (1 Bft) N-NO22.5 15 0 min 747 lux 1,7 C 4,3 C
11.12.2009 16:11 4,1 C 5,2 C 4,1 C 84 % 1025 hPa 0,0 l/m 2,9 m/s (2 Bft) O-NO67.5 70 0 min 474 lux 1,6 C 0,9 C
11.12.2009 16:16 4,1 C 5,1 C 3,9 C 84 % 1025 hPa 0,0 l/m 1,8 m/s (2 Bft) N22.5 360 0 min 304 lux 1,6 C 3,9 C
11.12.2009 16:21 3,9 C 5,1 C 3,9 C 85 % 1025 hPa 0,0 l/m 1,1 m/s (1 Bft) N-NO 15 0 min 153 lux 1,6 C 3,9 C
11.12.2009 16:26 3,8 C 5,0 C 3,9 C 86 % 1025 hPa 0,0 l/m 3,8 m/s (3 Bft) N-NO45 30 0 min 148 lux 1,7 C -1,6 C
11.12.2009 16:31 3,7 C 5,0 C 3,8 C 87 % 1025 hPa 0,0 l/m 2,0 m/s (2 Bft) NO22.5 55 0 min 102 lux 1,7 C 2,9 C
11.12.2009 16:36 3,5 C 4,8 C 3,7 C 87 % 1025 hPa 0,0 l/m 4,2 m/s (3 Bft) O67.5 80 0 min 73 lux 1,5 C -2,8 C
11.12.2009 16:41 3,3 C 4,8 C 3,4 C 86 % 1025 hPa 0,0 l/m 3,9 m/s (3 Bft) NO67.5 45 0 min 43 lux 1,2 C -2,4 C
11.12.2009 16:46 3,1 C 4,6 C 3,5 C 86 % 1025 hPa 0,0 l/m 2,6 m/s (2 Bft) NO45 40 0 min 33 lux 1,0 C 0,6 C
11.12.2009 16:51 3,0 C 4,5 C 3,3 C 86 % 1025 hPa 0,0 l/m 3,1 m/s (2 Bft) NO45 45 0 min 19 lux 0,9 C -1,1 C
11.12.2009 16:56 2,8 C 4,4 C 3,1 C 88 % 1025 hPa 0,0 l/m 2,9 m/s (2 Bft) O45 100 0 min 6 lux 1,0 C -0,8 C
11.12.2009 17:01 2,6 C 4,3 C 3,1 C 88 % 1025 hPa 0,0 l/m 2,8 m/s (2 Bft) O67.5 80 0 min 1 lux 0,8 C -0,5 C
11.12.2009 17:06 2,6 C 4,1 C 3,2 C 88 % 1025 hPa 0,0 l/m 2,1 m/s (2 Bft) NO45 45 0 min 0 lux 0,8 C 1,4 C
11.12.2009 17:11 2,6 C 4,1 C 3,2 C 89 % 1025 hPa 0,0 l/m 0,3 m/s (1 Bft) O-NO22.5 75 0 min 0 lux 1,0 C 2,6 C
11.12.2009 17:16 2,5 C 4,1 C 3,2 C 89 % 1025 hPa 0,0 l/m 1,7 m/s (2 Bft) O22.5 80 0 min 0 lux 0,9 C 2,5 C
11.12.2009 17:21 2,6 C 4,0 C 3,0 C 89 % 1025 hPa 0,0 l/m 2,8 m/s (2 Bft) O-NO22.5 70 0 min 0 lux 1,0 C -0,5 C
11.12.2009 17:26 2,5 C 4,0 C 3,0 C 89 % 1025 hPa 0,0 l/m 1,7 m/s (2 Bft) N-NO22.5 20 0 min 0 lux 0,9 C 2,5 C
11.12.2009 17:31 2,5 C 3,8 C 3,0 C 89 % 1025 hPa 0,4 l/m 2,9 m/s (2 Bft) N-NO45 30 0 min 0 lux 0,9 C -1,1 C
11.12.2009 17:36 2,4 C 3,8 C 2,8 C 89 % 1025 hPa 0,0 l/m 2,7 m/s (2 Bft) O-NO67.5 60 0 min 0 lux 0,8 C -0,6 C
11.12.2009 17:41 2,4 C 3,7 C 2,8 C 89 % 1025 hPa 0,0 l/m 3,2 m/s (2 Bft) O-NO45 65 0 min 0 lux 0,8 C -1,8 C
11.12.2009 17:46 2,3 C 3,7 C 2,7 C 89 % 1025 hPa 0,0 l/m 2,9 m/s (2 Bft) O45 85 0 min 0 lux 0,7 C -1,2 C
11.12.2009 17:51 2,3 C 3,6 C 2,7 C 90 % 1025 hPa 0,0 l/m 1,6 m/s (2 Bft) NO45 50 0 min 0 lux 0,8 C 2,3 C
11.12.2009 17:56 2,3 C 3,6 C 2,6 C 89 % 1025 hPa 0,0 l/m 3,9 m/s (3 Bft) O22.5 90 0 min 0 lux 0,7 C -3,6 C
11.12.2009 18:01 2,3 C 3,5 C 2,6 C 89 % 1026 hPa 0,0 l/m 2,9 m/s (2 Bft) O-NO22.5 65 0 min 0 lux 0,7 C -1,4 C
11.12.2009 18:06 2,3 C 3,5 C 2,7 C 89 % 1026 hPa 0,0 l/m 4,8 m/s (3 Bft) O22.5 90 0 min 0 lux 0,7 C -5,5 C
11.12.2009 18:11 2,3 C 3,5 C 2,7 C 88 % 1026 hPa 0,0 l/m 2,5 m/s (2 Bft) O22.5 90 0 min 0 lux 0,5 C -0,1 C
11.12.2009 18:16 2,3 C 3,4 C 2,5 C 87 % 1026 hPa 0,0 l/m 2,9 m/s (2 Bft) O67.5 85 0 min 0 lux 0,4 C -1,4 C
11.12.2009 18:21 2,3 C 3,4 C 2,4 C 87 % 1026 hPa 0,0 l/m 2,9 m/s (2 Bft) NO45 55 0 min 0 lux 0,4 C -1,1 C
11.12.2009 18:26 2,2 C 3,4 C 2,5 C 86 % 1026 hPa 0,0 l/m 3,9 m/s (3 Bft) NO45 55 0 min 0 lux 0,1 C -3,7 C
11.12.2009 18:31 2,2 C 3,3 C 2,5 C 86 % 1026 hPa 0,0 l/m 4,1 m/s (3 Bft) O22.5 85 0 min 0 lux 0,1 C -4,2 C
11.12.2009 18:36 2,1 C 3,3 C 2,4 C 86 % 1026 hPa 0,0 l/m 2,8 m/s (2 Bft) NO67.5 55 0 min 0 lux 0,0 C -1,2 C
11.12.2009 18:41 2,1 C 3,3 C 2,5 C 86 % 1026 hPa 0,0 l/m 1,6 m/s (1 Bft) O-NO 70 0 min 0 lux 0,0 C 2,1 C
11.12.2009 18:45 2,2 C 3,2 C 2,5 C 87 % 1026 hPa 0,0 l/m 0,0 m/s (0 Bft) O-NO 70 0 min 0 lux 0,3 C 2,2 C
11.12.2009 18:50 2,2 C 3,2 C 2,4 C 87 % 1026 hPa 0,0 l/m 2,1 m/s (2 Bft) N-NO45 30 0 min 0 lux 0,3 C 1,2 C
11.12.2009 18:55 2,1 C 3,2 C 2,4 C 87 % 1026 hPa 0,0 l/m 1,6 m/s (1 Bft) N 355 0 min 0 lux 0,2 C 2,1 C
11.12.2009 19:00 2,1 C 3,2 C 2,4 C 87 % 1026 hPa 0,0 l/m 0,0 m/s (0 Bft) N 355 0 min 0 lux 0,2 C 2,1 C
11.12.2009 19:05 2,1 C 3,2 C 2,4 C 88 % 1026 hPa 0,0 l/m 0,0 m/s (0 Bft) N 355 0 min 0 lux 0,3 C 2,1 C
11.12.2009 19:10 2,1 C 3,2 C 2,4 C 87 % 1026 hPa 0,0 l/m 0,0 m/s (0 Bft) N 355 0 min 0 lux 0,2 C 2,1 C
11.12.2009 19:15 2,0 C 3,2 C 2,3 C 87 % 1026 hPa 0,0 l/m 1,6 m/s (2 Bft) N45 360 0 min 0 lux 0,1 C 2,0 C
11.12.2009 19:20 2,0 C 3,1 C 2,3 C 87 % 1026 hPa 0,0 l/m 1,5 m/s (1 Bft) O22.5 90 0 min 0 lux 0,1 C 2,0 C
11.12.2009 19:25 2,0 C 3,1 C 2,3 C 87 % 1026 hPa 0,0 l/m 1,2 m/s (1 Bft) O 90 0 min 0 lux 0,1 C 2,0 C
11.12.2009 19:30 2,0 C 3,1 C 2,3 C 87 % 1026 hPa 0,0 l/m 1,3 m/s (1 Bft) O 90 0 min 0 lux 0,1 C 2,0 C
11.12.2009 19:35 2,0 C 3,1 C 2,2 C 88 % 1026 hPa 0,0 l/m 0,4 m/s (1 Bft) N-NO 30 0 min 0 lux 0,2 C 2,0 C
11.12.2009 19:40 1,9 C 3,1 C 2,3 C 88 % 1026 hPa 0,0 l/m 1,3 m/s (1 Bft) N-NO22.5 30 0 min 0 lux 0,1 C 1,9 C
11.12.2009 19:45 1,9 C 3,0 C 2,2 C 88 % 1026 hPa 0,0 l/m 0,2 m/s (0 Bft) N-NO 20 0 min 0 lux 0,1 C 1,9 C
11.12.2009 19:50 1,9 C 3,0 C 2,2 C 88 % 1026 hPa 0,0 l/m 1,9 m/s (2 Bft) O22.5 95 0 min 0 lux 0,1 C 1,5 C
11.12.2009 19:55 1,9 C 3,0 C 2,3 C 88 % 1026 hPa 0,0 l/m 1,9 m/s (2 Bft) O 95 0 min 0 lux 0,1 C 1,4 C
11.12.2009 20:00 1,8 C 3,0 C 2,1 C 88 % 1026 hPa 0,0 l/m 2,2 m/s (2 Bft) O22.5 80 0 min 0 lux 0,0 C 0,2 C
11.12.2009 20:05 1,8 C 2,9 C 2,1 C 88 % 1026 hPa 0,0 l/m 2,3 m/s (2 Bft) NO67.5 55 0 min 0 lux 0,0 C 0,2 C
11.12.2009 20:10 1,7 C 2,9 C 2,1 C 89 % 1026 hPa 0,0 l/m 1,4 m/s (1 Bft) NO45 35 0 min 0 lux 0,1 C 1,7 C
11.12.2009 20:15 1,7 C 2,8 C 2,0 C 89 % 1026 hPa 0,0 l/m 1,9 m/s (2 Bft) O45 85 0 min 0 lux 0,1 C 1,4 C
11.12.2009 20:20 1,6 C 2,8 C 2,1 C 88 % 1026 hPa 0,0 l/m 1,1 m/s (1 Bft) O22.5 95 0 min 0 lux -0,2 C 1,6 C
11.12.2009 20:25 1,6 C 2,8 C 2,1 C 89 % 1026 hPa 0,0 l/m 0,8 m/s (1 Bft) O-SO 115 0 min 0 lux -0,0 C 1,6 C
11.12.2009 20:30 1,6 C 2,8 C 1,9 C 89 % 1026 hPa 0,0 l/m 0,0 m/s (0 Bft) O-SO22.5 110 0 min 0 lux -0,0 C 1,6 C
11.12.2009 20:35 1,6 C 2,8 C 2,1 C 89 % 1026 hPa 0,0 l/m 0,1 m/s (0 Bft) NO 50 0 min 0 lux -0,0 C 1,6 C
11.12.2009 20:40 1,6 C 2,8 C 2,0 C 89 % 1026 hPa 0,0 l/m 0,1 m/s (0 Bft) NO 55 0 min 0 lux -0,0 C 1,6 C
11.12.2009 20:45 1,6 C 2,7 C 1,9 C 89 % 1026 hPa 0,0 l/m 0,3 m/s (1 Bft) O-NO22.5 70 0 min 0 lux -0,0 C 1,6 C
11.12.2009 20:50 1,5 C 2,7 C 1,9 C 89 % 1026 hPa 0,0 l/m 0,1 m/s (0 Bft) NO67.5 45 0 min 0 lux -0,1 C 1,5 C
11.12.2009 20:55 1,5 C 2,7 C 1,9 C 89 % 1026 hPa 0,0 l/m 0,3 m/s (0 Bft) N 355 0 min 0 lux -0,1 C 1,5 C
11.12.2009 21:00 1,5 C 2,6 C 1,9 C 90 % 1026 hPa 0,0 l/m 0,8 m/s (1 Bft) O-NO45 60 0 min 0 lux 0,0 C 1,5 C
11.12.2009 21:05 1,4 C 2,6 C 1,9 C 90 % 1026 hPa 0,0 l/m 0,7 m/s (1 Bft) N-NO 15 0 min 0 lux -0,1 C 1,4 C
11.12.2009 21:10 1,4 C 2,6 C 1,9 C 90 % 1026 hPa 0,0 l/m 0,0 m/s (0 Bft) N-NO 20 0 min 0 lux -0,1 C 1,4 C
11.12.2009 21:15 1,5 C 2,6 C 1,9 C 90 % 1026 hPa 0,0 l/m 0,0 m/s (0 Bft) N-NO 20 0 min 0 lux 0,0 C 1,5 C
11.12.2009 21:20 1,5 C 2,6 C 1,9 C 90 % 1026 hPa 0,0 l/m 0,0 m/s (0 Bft) N-NO 20 0 min 0 lux 0,0 C 1,5 C
11.12.2009 21:25 1,5 C 2,6 C 1,9 C 90 % 1026 hPa 0,0 l/m 0,0 m/s (0 Bft) N-NO 20 0 min 0 lux 0,0 C 1,5 C
11.12.2009 21:30 1,5 C 2,6 C 1,9 C 90 % 1026 hPa 0,0 l/m 0,0 m/s (0 Bft) N-NO 20 0 min 0 lux 0,0 C 1,5 C
11.12.2009 21:35 1,5 C 2,6 C 1,9 C 90 % 1026 hPa 0,0 l/m 0,0 m/s (0 Bft) N-NO 20 0 min 0 lux 0,0 C 1,5 C
11.12.2009 21:40 1,5 C 2,5 C 1,9 C 91 % 1027 hPa 0,0 l/m 0,0 m/s (0 Bft) N-NO 20 0 min 0 lux 0,2 C 1,5 C
11.12.2009 21:45 1,4 C 2,5 C 1,9 C 90 % 1027 hPa 0,0 l/m 0,0 m/s (0 Bft) N-NO 20 0 min 0 lux -0,1 C 1,4 C
11.12.2009 21:50 1,4 C 2,5 C 1,7 C 90 % 1027 hPa 0,7 l/m 0,0 m/s (0 Bft) N-NO 20 0 min 0 lux -0,1 C 1,4 C
11.12.2009 21:55 1,4 C 2,5 C 1,8 C 91 % 1027 hPa 0,0 l/m 0,0 m/s (0 Bft) N-NO 20 0 min 0 lux 0,1 C 1,4 C
11.12.2009 22:00 1,4 C 2,5 C 1,8 C 91 % 1027 hPa 0,0 l/m 0,0 m/s (0 Bft) N-NO 20 0 min 0 lux 0,1 C 1,4 C
11.12.2009 22:05 1,4 C 2,5 C 1,8 C 90 % 1027 hPa 0,0 l/m 0,0 m/s (0 Bft) N-NO 20 0 min 0 lux -0,1 C 1,4 C
11.12.2009 22:10 1,4 C 2,5 C 1,8 C 91 % 1027 hPa 0,0 l/m 0,0 m/s (0 Bft) N-NO 20 0 min 0 lux 0,1 C 1,4 C
11.12.2009 22:15 1,4 C 2,4 C 1,8 C 91 % 1027 hPa 0,0 l/m 0,0 m/s (0 Bft) N-NO 20 0 min 0 lux 0,1 C 1,4 C
11.12.2009 22:20 1,4 C 2,4 C 1,7 C 91 % 1027 hPa 0,0 l/m 0,0 m/s (0 Bft) N-NO 20 0 min 0 lux 0,1 C 1,4 C
11.12.2009 22:26 1,4 C 2,4 C 1,8 C 91 % 1026 hPa 0,0 l/m 0,0 m/s (0 Bft) N-NO 20 0 min 0 lux 0,1 C 1,4 C
11.12.2009 22:31 1,4 C 2,4 C 1,7 C 91 % 1026 hPa 0,0 l/m 0,0 m/s (0 Bft) N-NO 20 0 min 0 lux 0,1 C 1,4 C
11.12.2009 22:36 1,3 C 2,4 C 1,7 C 91 % 1026 hPa 0,0 l/m 0,0 m/s (0 Bft) N-NO 20 0 min 0 lux -0,0 C 1,3 C
11.12.2009 22:41 1,4 C 2,4 C 1,7 C 90 % 1027 hPa 0,0 l/m 0,0 m/s (0 Bft) N-NO 20 0 min 0 lux -0,1 C 1,4 C
11.12.2009 22:46 1,4 C 2,4 C 1,7 C 90 % 1027 hPa 0,0 l/m 0,0 m/s (0 Bft) N-NO 20 0 min 0 lux -0,1 C 1,4 C
11.12.2009 22:51 1,3 C 2,4 C 1,7 C 90 % 1027 hPa 0,0 l/m 0,0 m/s (0 Bft) N-NO 20 0 min 0 lux -0,2 C 1,3 C
11.12.2009 22:56 1,3 C 2,4 C 1,7 C 90 % 1027 hPa 0,4 l/m 0,0 m/s (0 Bft) N-NO 20 0 min 0 lux -0,2 C 1,3 C
11.12.2009 23:01 1,3 C 2,4 C 1,7 C 90 % 1027 hPa 0,0 l/m 0,0 m/s (0 Bft) N-NO 20 0 min 0 lux -0,2 C 1,3 C
11.12.2009 23:06 1,3 C 2,4 C 1,7 C 91 % 1027 hPa 0,0 l/m 0,0 m/s (0 Bft) N-NO 20 0 min 0 lux -0,0 C 1,3 C
11.12.2009 23:11 1,2 C 2,4 C 1,8 C 91 % 1027 hPa 0,0 l/m 0,0 m/s (0 Bft) N-NO 20 0 min 0 lux -0,1 C 1,2 C
11.12.2009 23:16 1,2 C 2,5 C 1,8 C 91 % 1027 hPa 0,0 l/m 0,0 m/s (0 Bft) N-NO 20 0 min 0 lux -0,1 C 1,2 C
11.12.2009 23:21 1,2 C 2,4 C 1,7 C 92 % 1027 hPa 0,0 l/m 0,0 m/s (0 Bft) N-NO 20 0 min 0 lux 0,0 C 1,2 C
11.12.2009 23:26 1,2 C 2,4 C 1,7 C 92 % 1026 hPa 0,0 l/m 0,0 m/s (0 Bft) N-NO 20 0 min 0 lux 0,0 C 1,2 C
11.12.2009 23:31 1,2 C 2,4 C 1,7 C 92 % 1027 hPa 0,0 l/m 0,0 m/s (0 Bft) N-NO 20 0 min 0 lux 0,0 C 1,2 C
11.12.2009 23:36 1,2 C 2,4 C 1,7 C 92 % 1027 hPa 0,0 l/m 0,0 m/s (0 Bft) N-NO 20 0 min 0 lux 0,0 C 1,2 C
11.12.2009 23:41 1,1 C 2,3 C 1,7 C 92 % 1027 hPa 0,4 l/m 0,0 m/s (0 Bft) N-NO 20 0 min 0 lux -0,1 C 1,1 C
11.12.2009 23:46 1,0 C 2,3 C 1,7 C 92 % 1026 hPa 0,0 l/m 0,0 m/s (0 Bft) N-NO 20 0 min 0 lux -0,2 C 1,0 C
11.12.2009 23:51 1,0 C 2,3 C 1,6 C 92 % 1026 hPa 0,0 l/m 0,0 m/s (0 Bft) N-NO 20 0 min 0 lux -0,2 C 1,0 C
11.12.2009 23:56 1,0 C 2,3 C 1,6 C 92 % 1027 hPa 0,0 l/m 0,0 m/s (0 Bft) N-NO 20 0 min 0 lux -0,2 C 1,0 C
_ Min-Zeit 23:46 23:41 23:51 12:20 01:25 - 06:00 - - - - 20:20 18:06
Minimum _ 1,0 C 2,3 C 1,6 C 79 % 1020 hPa - 0,0 m/s (0 Bft) - - - - -0,2 C -5,5 C
_ Max-Zeit 01:56 01:46 01:15 00:00 21:40 21:50 04:21 - - 00:00 12:06 00:26 02:10
Maximum _ 6,6 C 7,1 C 5,7 C 96 % 1027 hPa 0,7 l/m 7,3 m/s
W (4 Bft)
- - 0 min 12,9 klux 5,7 C 6,6 C
Durchschnitt _ 4,2 C 5,1 C 3,9 C 88 % 1024 hPa #4,0 l/m 2,1 m/s (2 Bft) W-SW - #0 min. 1,72 klux 2,4 C 2,2 C